Location: Juign�
(47.4000°N, 0.4833°W)
Time: 16:38:02
(UTC+02:00)

ISS - Visible Passes

Search period start: 13 July 2025 00:00
Search period end: 23 July 2025 00:00
Orbit: 413 x 417 km, 51.6° (Epoch: 13 July)

Date Brightness Start Highest point End Pass type
(mag) Time Alt. Az. Time Alt. Az. Time Alt. Az.
13 Jul -2.3 00:22:11 10° WNW 00:25:21 38° N 00:28:31 10° ENE visible
13 Jul -3.2 01:59:07 10° WNW 02:02:26 59° NNE 02:03:21 41° ENE visible
13 Jul -1.1 03:35:59 10° WNW 03:36:07 11° W 03:36:07 11° W visible
13 Jul -2.4 23:33:11 10° W 23:36:22 40° N 23:39:35 10° ENE visible
14 Jul -2.8 01:10:15 10° WNW 01:13:30 47° NNE 01:15:19 22° ENE visible
14 Jul -1.7 02:47:01 10° WNW 02:48:08 19° WNW 02:48:08 19° WNW visible
14 Jul -2.6 22:44:09 10° W 22:47:24 47° NNW 22:50:39 10° ENE visible
15 Jul -2.5 00:21:19 10° WNW 00:24:31 40° N 00:27:34 11° E visible
15 Jul -2.9 01:58:04 10° WNW 02:00:23 41° WNW 02:00:23 41° WNW visible
15 Jul -2.3 23:32:20 10° WNW 23:35:30 38° N 23:38:40 10° ENE visible
16 Jul -3.7 01:09:10 10° WNW 01:12:32 74° NNE 01:12:45 70° ENE visible
16 Jul -2.3 22:43:18 10° WNW 22:46:28 38° N 22:49:38 10° ENE visible
17 Jul -3.2 00:20:15 10° WNW 00:23:33 56° NNE 00:25:11 26° E visible
17 Jul -1.5 01:57:05 10° WNW 01:58:01 17° W 01:58:01 17° W visible
17 Jul -2.8 23:31:18 10° WNW 23:34:32 45° NNE 23:37:41 11° E visible
18 Jul -3.0 01:08:02 10° WNW 01:10:31 41° W 01:10:31 41° W visible
18 Jul -2.5 22:42:18 10° WNW 22:45:29 40° N 22:48:40 10° ENE visible
19 Jul -3.9 00:19:03 10° WNW 00:22:25 84° SSW 00:23:02 56° SE visible
19 Jul -3.6 23:30:05 10° WNW 23:33:25 69° NNE 23:35:35 20° ESE visible
20 Jul -1.7 01:07:05 10° W 01:08:26 18° WSW 01:08:26 18° WSW visible
20 Jul -3.1 22:41:05 10° WNW 22:44:22 53° NNE 22:47:39 10° E visible
21 Jul -3.1 00:17:53 10° WNW 00:21:00 39° SW 00:21:00 39° SW visible
21 Jul -3.7 23:28:47 10° WNW 23:32:06 62° SSW 23:33:37 28° SE visible
22 Jul -3.8 22:39:44 10° WNW 22:43:05 89° NNE 22:46:15 11° ESE visible
